Time,TemperatureF,DewpointF,PressureIn,WindDirection,WindDirectionDegrees,WindSpeedMPH,WindSpeedGustMPH,Humidity,HourlyPrecipIn,Conditions,Clouds,dailyrainin,SoftwareType,DateUTC
2013-04-21 00:02:00,33.4,22.6,30.41,WNW,293,0.0,0.0,64,0.00,,,0.00,WUHU216HW,2013-04-21 04:02:00,
2013-04-21 00:07:00,33.2,22.3,30.42,WNW,293,0.0,0.0,64,0.00,,,0.00,WUHU216HW,2013-04-21 04:07:00,
2013-04-21 00:13:00,33.0,22.5,30.42,WNW,293,0.0,0.0,65,0.00,,,0.00,WUHU216HW,2013-04-21 04:13:00,
2013-04-21 00:18:00,32.9,22.3,30.42,WNW,293,0.0,0.0,65,0.00,,,0.00,WUHU216HW,2013-04-21 04:18:00,
2013-04-21 00:23:00,32.9,22.3,30.43,WNW,293,0.0,0.0,65,0.00,,,0.00,WUHU216HW,2013-04-21 04:23:00,
2013-04-21 00:28:00,32.7,22.5,30.43,WNW,293,0.0,0.0,66,0.00,,,0.00,WUHU216HW,2013-04-21 04:28:00,
2013-04-21 00:33:00,32.7,22.5,30.43,West,270,0.0,0.0,66,0.00,,,0.00,WUHU216HW,2013-04-21 04:33:00,
2013-04-21 00:38:00,32.7,22.9,30.43,West,270,0.0,0.0,67,0.00,,,0.00,WUHU216HW,2013-04-21 04:38:00,
2013-04-21 00:43:00,32.9,23.0,30.43,West,270,0.0,0.0,67,0.00,,,0.00,WUHU216HW,2013-04-21 04:43:00,
2013-04-21 00:48:00,33.0,23.2,30.43,West,270,0.0,0.0,67,0.00,,,0.00,WUHU216HW,2013-04-21 04:48:00,
2013-04-21 00:54:00,33.0,23.2,30.43,West,270,0.0,0.0,67,0.00,,,0.00,WUHU216HW,2013-04-21 04:54:00,
2013-04-21 00:59:00,33.4,23.5,30.43,WNW,293,0.0,0.0,67,0.00,,,0.00,WUHU216HW,2013-04-21 04:59:00,
2013-04-21 01:04:00,33.6,23.7,30.43,WNW,293,0.0,0.0,67,0.00,,,0.00,WUHU216HW,2013-04-21 05:04:00,
2013-04-21 01:10:00,33.6,23.7,30.44,WNW,293,0.0,0.0,67,0.00,,,0.00,WUHU216HW,2013-04-21 05:10:00,
2013-04-21 01:15:00,33.4,23.5,30.44,WNW,293,0.0,0.0,67,0.00,,,0.00,WUHU216HW,2013-04-21 05:15:00,
2013-04-21 01:20:00,33.2,23.4,30.44,WNW,293,0.0,0.0,67,0.00,,,0.00,WUHU216HW,2013-04-21 05:20:00,
2013-04-21 01:25:00,33.0,23.2,30.44,WNW,293,0.0,0.0,67,0.00,,,0.00,WUHU216HW,2013-04-21 05:25:00,
2013-04-21 01:30:00,32.9,23.0,30.44,WNW,293,0.0,0.0,67,0.00,,,0.00,WUHU216HW,2013-04-21 05:30:00,
2013-04-21 01:35:00,32.7,22.9,30.44,WNW,293,0.0,0.0,67,0.00,,,0.00,WUHU216HW,2013-04-21 05:35:00,
2013-04-21 01:41:00,32.7,22.9,30.44,WNW,293,0.0,0.0,67,0.00,,,0.00,WUHU216HW,2013-04-21 05:41:00,
2013-04-21 01:46:00,32.5,22.7,30.44,WNW,293,0.0,0.0,67,0.00,,,0.00,WUHU216HW,2013-04-21 05:46:00,
2013-04-21 01:52:00,32.1,22.4,30.45,WNW,293,0.0,0.0,67,0.00,,,0.00,WUHU216HW,2013-04-21 05:52:00,
2013-04-21 01:57:00,32.1,22.4,30.45,WNW,293,0.0,0.0,67,0.00,,,0.00,WUHU216HW,2013-04-21 05:57:00,
2013-04-21 02:02:00,32.1,22.4,30.45,WNW,293,0.0,0.0,67,0.00,,,0.00,WUHU216HW,2013-04-21 06:02:00,
2013-04-21 02:07:00,32.1,22.8,30.45,WNW,293,0.0,0.0,68,0.00,,,0.00,WUHU216HW,2013-04-21 06:07:00,
2013-04-21 02:13:00,32.1,22.8,30.45,WNW,293,0.0,0.0,68,0.00,,,0.00,WUHU216HW,2013-04-21 06:13:00,
2013-04-21 02:19:00,32.1,22.8,30.45,WNW,293,0.0,0.0,68,0.00,,,0.00,WUHU216HW,2013-04-21 06:19:00,
2013-04-21 02:24:00,31.8,22.4,30.45,WNW,293,0.0,0.0,68,0.00,,,0.00,WUHU216HW,2013-04-21 06:24:00,
2013-04-21 02:29:00,31.8,22.4,30.45,WNW,293,0.0,0.0,68,0.00,,,0.00,WUHU216HW,2013-04-21 06:29:00,
2013-04-21 02:34:00,31.6,22.6,30.45,WNW,293,0.0,0.0,69,0.00,,,0.00,WUHU216HW,2013-04-21 06:34:00,
2013-04-21 02:39:00,31.2,22.2,30.46,WNW,293,0.0,0.0,69,0.00,,,0.00,WUHU216HW,2013-04-21 06:39:00,
2013-04-21 02:44:00,31.1,22.1,30.46,WNW,293,0.0,0.0,69,0.00,,,0.00,WUHU216HW,2013-04-21 06:44:00,
2013-04-21 02:49:00,30.7,21.7,30.46,WNW,293,0.0,0.0,69,0.00,,,0.00,WUHU216HW,2013-04-21 06:49:00,
2013-04-21 02:55:00,30.7,21.7,30.46,WNW,293,0.0,0.0,69,0.00,,,0.00,WUHU216HW,2013-04-21 06:55:00,
2013-04-21 03:05:00,30.0,21.3,30.46,WNW,293,0.0,0.0,70,0.00,,,0.00,WUHU216HW,2013-04-21 07:05:00,
2013-04-21 03:11:00,29.8,21.5,30.46,WNW,293,0.0,0.0,71,0.00,,,0.00,WUHU216HW,2013-04-21 07:11:00,
2013-04-21 03:17:00,29.6,21.0,30.46,WNW,293,0.0,0.0,70,0.00,,,0.00,WUHU216HW,2013-04-21 07:17:00,
2013-04-21 03:23:00,29.4,21.2,30.46,WNW,293,0.0,0.0,71,0.00,,,0.00,WUHU216HW,2013-04-21 07:23:00,
2013-04-21 03:28:00,29.3,21.0,30.46,WNW,293,0.0,0.0,71,0.00,,,0.00,WUHU216HW,2013-04-21 07:28:00,
2013-04-21 03:34:00,29.1,20.8,30.46,WNW,293,0.0,0.0,71,0.00,,,0.00,WUHU216HW,2013-04-21 07:34:00,
2013-04-21 03:39:00,28.9,21.0,30.46,WNW,293,0.0,0.0,72,0.00,,,0.00,WUHU216HW,2013-04-21 07:39:00,
2013-04-21 03:44:00,28.9,21.0,30.47,WNW,293,0.0,0.0,72,0.00,,,0.00,WUHU216HW,2013-04-21 07:44:00,
2013-04-21 03:50:00,28.7,20.8,30.47,WNW,293,0.0,0.0,72,0.00,,,0.00,WUHU216HW,2013-04-21 07:50:00,
2013-04-21 03:56:00,28.7,20.8,30.47,WNW,293,0.0,0.0,72,0.00,,,0.00,WUHU216HW,2013-04-21 07:56:00,
2013-04-21 04:02:00,28.5,20.7,30.47,WNW,293,0.0,0.0,72,0.00,,,0.00,WUHU216HW,2013-04-21 08:02:00,
2013-04-21 04:08:00,28.4,20.8,30.47,WNW,293,0.0,0.0,73,0.00,,,0.00,WUHU216HW,2013-04-21 08:08:00,
2013-04-21 04:13:00,28.2,20.6,30.47,WNW,293,0.0,0.0,73,0.00,,,0.00,WUHU216HW,2013-04-21 08:13:00,
2013-04-21 04:18:00,28.2,20.6,30.48,WNW,293,0.0,0.0,73,0.00,,,0.00,WUHU216HW,2013-04-21 08:18:00,
2013-04-21 04:24:00,28.0,20.4,30.48,WNW,293,0.0,0.0,73,0.00,,,0.00,WUHU216HW,2013-04-21 08:24:00,
2013-04-21 04:30:00,28.0,20.4,30.48,WNW,293,0.0,0.0,73,0.00,,,0.00,WUHU216HW,2013-04-21 08:30:00,
2013-04-21 04:36:00,28.0,20.8,30.48,WNW,293,0.0,0.0,74,0.00,,,0.00,WUHU216HW,2013-04-21 08:36:00,
2013-04-21 04:42:00,28.0,20.8,30.49,WNW,293,0.0,0.0,74,0.00,,,0.00,WUHU216HW,2013-04-21 08:42:00,
2013-04-21 04:47:00,28.0,21.1,30.49,WNW,293,0.0,0.0,75,0.00,,,0.00,WUHU216HW,2013-04-21 08:47:00,
2013-04-21 04:52:00,28.0,21.1,30.49,WNW,293,0.0,0.0,75,0.00,,,0.00,WUHU216HW,2013-04-21 08:52:00,
2013-04-21 04:58:00,27.6,20.7,30.49,WNW,293,0.0,0.0,75,0.00,,,0.00,WUHU216HW,2013-04-21 08:58:00,
2013-04-21 05:04:00,27.5,20.5,30.49,WNW,293,0.0,0.0,75,0.00,,,0.00,WUHU216HW,2013-04-21 09:04:00,
2013-04-21 05:09:00,27.5,20.5,30.49,WNW,293,0.0,0.0,75,0.00,,,0.00,WUHU216HW,2013-04-21 09:09:00,
2013-04-21 05:20:00,27.3,20.3,30.50,WNW,293,0.0,0.0,75,0.00,,,0.00,WUHU216HW,2013-04-21 09:20:00,
2013-04-21 05:26:00,27.3,20.6,30.50,WNW,293,0.0,0.0,76,0.00,,,0.00,WUHU216HW,2013-04-21 09:26:00,
2013-04-21 05:31:00,27.3,20.6,30.49,WNW,293,0.0,0.0,76,0.00,,,0.00,WUHU216HW,2013-04-21 09:31:00,
2013-04-21 05:36:00,27.1,20.5,30.50,WNW,293,0.0,0.0,76,0.00,,,0.00,WUHU216HW,2013-04-21 09:36:00,
2013-04-21 05:41:00,27.1,20.5,30.50,WNW,293,0.0,0.0,76,0.00,,,0.00,WUHU216HW,2013-04-21 09:41:00,
2013-04-21 05:47:00,27.3,20.6,30.50,WNW,293,0.0,0.0,76,0.00,,,0.00,WUHU216HW,2013-04-21 09:47:00,
2013-04-21 05:52:00,27.3,20.6,30.50,WNW,293,0.0,0.0,76,0.00,,,0.00,WUHU216HW,2013-04-21 09:52:00,
2013-04-21 05:57:00,27.3,20.6,30.51,WNW,293,0.0,0.0,76,0.00,,,0.00,WUHU216HW,2013-04-21 09:57:00,
2013-04-21 06:03:00,27.3,20.6,30.51,WNW,293,0.0,0.0,76,0.00,,,0.00,WUHU216HW,2013-04-21 10:03:00,
2013-04-21 06:08:00,27.3,20.6,30.51,WNW,293,0.0,0.0,76,0.00,,,0.00,WUHU216HW,2013-04-21 10:08:00,
2013-04-21 06:13:00,27.3,21.0,30.52,WNW,293,0.0,0.0,77,0.00,,,0.00,WUHU216HW,2013-04-21 10:13:00,
2013-04-21 06:18:00,27.1,20.5,30.52,WNW,293,0.0,0.0,76,0.00,,,0.00,WUHU216HW,2013-04-21 10:18:00,
2013-04-21 06:24:00,27.1,20.5,30.52,WNW,293,0.0,0.0,76,0.00,,,0.00,WUHU216HW,2013-04-21 10:24:00,
2013-04-21 06:29:00,27.1,20.8,30.53,WNW,293,0.0,0.0,77,0.00,,,0.00,WUHU216HW,2013-04-21 10:29:00,
2013-04-21 06:34:00,26.9,20.6,30.53,WNW,293,0.0,0.0,77,0.00,,,0.00,WUHU216HW,2013-04-21 10:34:00,
2013-04-21 06:40:00,26.9,20.6,30.53,WNW,293,0.0,0.0,77,0.00,,,0.00,WUHU216HW,2013-04-21 10:40:00,
2013-04-21 06:45:00,26.9,20.6,30.54,WNW,293,0.0,0.0,77,0.00,,,0.00,WUHU216HW,2013-04-21 10:45:00,
2013-04-21 06:50:00,26.9,20.6,30.54,WNW,293,0.0,0.0,77,0.00,,,0.00,WUHU216HW,2013-04-21 10:50:00,
2013-04-21 06:56:00,26.9,20.9,30.54,WNW,293,0.0,0.0,78,0.00,,,0.00,WUHU216HW,2013-04-21 10:56:00,
2013-04-21 07:02:00,27.6,21.9,30.54,WNW,293,0.0,0.0,79,0.00,,,0.00,WUHU216HW,2013-04-21 11:02:00,
2013-04-21 07:07:00,28.2,22.8,30.54,WNW,293,0.0,0.0,80,0.00,,,0.00,WUHU216HW,2013-04-21 11:07:00,
2013-04-21 07:12:00,28.5,23.1,30.54,WNW,293,0.0,0.0,80,0.00,,,0.00,WUHU216HW,2013-04-21 11:12:00,
2013-04-21 07:18:00,29.1,23.7,30.55,WNW,293,0.0,0.0,80,0.00,,,0.00,WUHU216HW,2013-04-21 11:18:00,
2013-04-21 07:23:00,29.8,24.4,30.55,WNW,293,0.0,0.0,80,0.00,,,0.00,WUHU216HW,2013-04-21 11:23:00,
2013-04-21 07:28:00,30.9,25.8,30.56,WNW,293,0.0,0.0,81,0.00,,,0.00,WUHU216HW,2013-04-21 11:28:00,
2013-04-21 07:33:00,31.8,26.7,30.56,WNW,293,0.0,0.0,81,0.00,,,0.00,WUHU216HW,2013-04-21 11:33:00,
2013-04-21 07:39:00,33.0,27.8,30.56,WNW,293,0.0,0.0,81,0.00,,,0.00,WUHU216HW,2013-04-21 11:39:00,
2013-04-21 07:44:00,34.3,28.7,30.56,WNW,293,0.0,0.0,80,0.00,,,0.00,WUHU216HW,2013-04-21 11:44:00,
2013-04-21 07:50:00,36.3,30.7,30.56,WNW,293,0.0,0.0,80,0.00,,,0.00,WUHU216HW,2013-04-21 11:50:00,
2013-04-21 07:56:00,37.9,31.6,30.57,WNW,293,0.0,0.0,78,0.00,,,0.00,WUHU216HW,2013-04-21 11:56:00,
2013-04-21 08:02:00,39.0,32.0,30.57,WNW,293,0.0,0.0,76,0.00,,,0.00,WUHU216HW,2013-04-21 12:02:00,
2013-04-21 08:07:00,39.5,31.5,30.57,WNW,293,0.0,0.0,73,0.00,,,0.00,WUHU216HW,2013-04-21 12:07:00,
2013-04-21 08:13:00,39.7,31.4,30.57,WNW,293,0.0,0.0,72,0.00,,,0.00,WUHU216HW,2013-04-21 12:13:00,
2013-04-21 08:18:00,39.9,30.9,30.57,WNW,293,0.0,0.0,70,0.00,,,0.00,WUHU216HW,2013-04-21 12:18:00,
2013-04-21 08:23:00,40.2,30.9,30.58,WNW,293,0.0,0.0,69,0.00,,,0.00,WUHU216HW,2013-04-21 12:23:00,
2013-04-21 08:29:00,40.2,30.1,30.58,WNW,293,0.0,0.0,67,0.00,,,0.00,WUHU216HW,2013-04-21 12:29:00,
2013-04-21 08:34:00,39.9,29.7,30.58,WNW,293,0.0,0.0,67,0.00,,,0.00,WUHU216HW,2013-04-21 12:34:00,
2013-04-21 08:39:00,39.7,29.6,30.58,WNW,293,0.0,0.0,67,0.00,,,0.00,WUHU216HW,2013-04-21 12:39:00,
2013-04-21 08:45:00,39.9,29.7,30.58,WNW,293,0.0,0.0,67,0.00,,,0.00,WUHU216HW,2013-04-21 12:45:00,
2013-04-21 08:51:00,40.8,31.0,30.59,NNW,338,0.0,0.0,68,0.00,,,0.00,WUHU216HW,2013-04-21 12:51:00,
2013-04-21 08:57:00,41.3,31.2,30.59,NNE,23,0.0,0.0,67,0.00,,,0.00,WUHU216HW,2013-04-21 12:57:00,
2013-04-21 09:03:00,41.9,30.9,30.59,NNE,23,0.0,0.0,65,0.00,,,0.00,WUHU216HW,2013-04-21 13:03:00,
2013-04-21 09:09:00,42.4,31.4,30.60,ENE,68,0.0,0.0,65,0.00,,,0.00,WUHU216HW,2013-04-21 13:09:00,
2013-04-21 09:14:00,42.9,31.1,30.60,NNE,23,0.0,0.0,63,0.00,,,0.00,WUHU216HW,2013-04-21 13:14:00,
2013-04-21 09:20:00,42.9,30.3,30.60,NNE,23,0.0,0.0,61,0.00,,,0.00,WUHU216HW,2013-04-21 13:20:00,
2013-04-21 09:26:00,42.4,29.5,30.60,NNE,23,0.0,0.0,60,0.00,,,0.00,WUHU216HW,2013-04-21 13:26:00,
2013-04-21 09:32:00,42.0,28.7,30.60,NE,45,0.0,7.1,59,0.00,,,0.00,WUHU216HW,2013-04-21 13:32:00,
2013-04-21 09:37:00,41.9,28.5,30.60,NE,45,0.0,7.1,59,0.00,,,0.00,WUHU216HW,2013-04-21 13:37:00,
2013-04-21 09:42:00,41.9,27.9,30.60,ESE,113,0.0,5.1,58,0.00,,,0.00,WUHU216HW,2013-04-21 13:42:00,
2013-04-21 09:48:00,42.0,28.3,30.60,NE,45,0.0,5.1,58,0.00,,,0.00,WUHU216HW,2013-04-21 13:48:00,
2013-04-21 09:53:00,42.8,28.9,30.60,NNE,23,4.4,4.4,58,0.00,,,0.00,WUHU216HW,2013-04-21 13:53:00,
2013-04-21 09:58:00,42.9,28.2,30.60,NNE,23,6.7,6.7,56,0.00,,,0.00,WUHU216HW,2013-04-21 13:58:00,
2013-04-21 10:03:00,42.6,27.5,30.60,NE,45,7.3,7.3,55,0.00,,,0.00,WUHU216HW,2013-04-21 14:03:00,
2013-04-21 10:09:00,42.9,27.4,30.60,NNE,23,0.0,7.3,54,0.00,,,0.00,WUHU216HW,2013-04-21 14:09:00,
2013-04-21 10:15:00,43.1,26.7,30.60,NE,45,0.0,4.4,52,0.00,,,0.00,WUHU216HW,2013-04-21 14:15:00,
2013-04-21 10:20:00,43.5,27.0,30.60,ENE,68,0.0,4.4,52,0.00,,,0.00,WUHU216HW,2013-04-21 14:20:00,
2013-04-21 10:25:00,44.0,27.9,30.61,NE,45,0.0,0.0,53,0.00,,,0.00,WUHU216HW,2013-04-21 14:25:00,
2013-04-21 10:31:00,44.2,27.2,30.61,NNE,23,0.0,6.2,51,0.00,,,0.00,WUHU216HW,2013-04-21 14:31:00,
2013-04-21 10:37:00,44.4,27.4,30.60,NNE,23,0.0,6.2,51,0.00,,,0.00,WUHU216HW,2013-04-21 14:37:00,
2013-04-21 10:42:00,45.1,28.0,30.60,NNE,23,0.0,0.0,51,0.00,,,0.00,WUHU216HW,2013-04-21 14:42:00,
2013-04-21 10:47:00,45.5,28.4,30.60,ENE,68,0.0,0.0,51,0.00,,,0.00,WUHU216HW,2013-04-21 14:47:00,
2013-04-21 10:52:00,46.0,28.4,30.61,NNE,23,4.0,4.0,50,0.00,,,0.00,WUHU216HW,2013-04-21 14:52:00,
2013-04-21 10:57:00,46.2,28.0,30.60,NNE,23,0.0,4.0,49,0.00,,,0.00,WUHU216HW,2013-04-21 14:57:00,
2013-04-21 11:03:00,46.5,28.9,30.60,NE,45,0.0,0.0,50,0.00,,,0.00,WUHU216HW,2013-04-21 15:03:00,
2013-04-21 11:08:00,46.9,28.1,30.60,ENE,68,0.0,0.0,48,0.00,,,0.00,WUHU216HW,2013-04-21 15:08:00,
2013-04-21 11:14:00,47.1,27.7,30.60,NE,45,0.0,0.0,47,0.00,,,0.00,WUHU216HW,2013-04-21 15:14:00,
2013-04-21 11:19:00,46.9,27.6,30.61,NNE,23,0.0,0.0,47,0.00,,,0.00,WUHU216HW,2013-04-21 15:19:00,
2013-04-21 11:24:00,47.1,27.7,30.60,NE,45,0.0,0.0,47,0.00,,,0.00,WUHU216HW,2013-04-21 15:24:00,
2013-04-21 11:29:00,48.2,28.9,30.60,NE,45,7.1,7.1,48,0.00,,,0.00,WUHU216HW,2013-04-21 15:29:00,
2013-04-21 11:34:00,48.5,29.1,30.60,ENE,68,0.0,7.1,47,0.00,,,0.00,WUHU216HW,2013-04-21 15:34:00,
2013-04-21 11:40:00,49.1,29.0,30.60,North,0,0.0,7.1,46,0.00,,,0.00,WUHU216HW,2013-04-21 15:40:00,
2013-04-21 11:46:00,48.7,28.1,30.60,ENE,68,0.0,0.0,45,0.00,,,0.00,WUHU216HW,2013-04-21 15:46:00,
2013-04-21 11:51:00,49.2,29.2,30.60,ENE,68,0.0,0.0,46,0.00,,,0.00,WUHU216HW,2013-04-21 15:51:00,
2013-04-21 11:56:00,49.2,28.1,30.60,NNE,23,0.0,0.0,44,0.00,,,0.00,WUHU216HW,2013-04-21 15:56:00,
2013-04-21 12:02:00,49.2,28.7,30.60,ENE,68,0.0,0.0,45,0.00,,,0.00,WUHU216HW,2013-04-21 16:02:00,
2013-04-21 12:07:00,49.2,28.1,30.60,NE,45,0.0,0.0,44,0.00,,,0.00,WUHU216HW,2013-04-21 16:07:00,
2013-04-21 12:13:00,49.6,28.4,30.59,ENE,68,0.0,4.0,44,0.00,,,0.00,WUHU216HW,2013-04-21 16:13:00,
2013-04-21 12:18:00,49.8,28.6,30.59,North,0,0.0,4.0,44,0.00,,,0.00,WUHU216HW,2013-04-21 16:18:00,
2013-04-21 12:23:00,50.3,29.1,30.59,NNE,23,0.0,0.0,44,0.00,,,0.00,WUHU216HW,2013-04-21 16:23:00,
2013-04-21 12:29:00,50.5,30.2,30.59,North,0,0.0,0.0,45,0.00,,,0.00,WUHU216HW,2013-04-21 16:29:00,
2013-04-21 12:34:00,51.0,29.8,30.58,NNE,23,2.2,7.8,44,0.00,,,0.00,WUHU216HW,2013-04-21 16:34:00,
2013-04-21 12:39:00,50.9,29.0,30.58,NNE,23,0.0,7.8,43,0.00,,,0.00,WUHU216HW,2013-04-21 16:39:00,
2013-04-21 12:45:00,50.9,29.0,30.58,North,0,0.0,3.5,43,0.00,,,0.00,WUHU216HW,2013-04-21 16:45:00,
2013-04-21 12:50:00,50.9,29.0,30.58,NE,45,0.0,0.0,43,0.00,,,0.00,WUHU216HW,2013-04-21 16:50:00,
2013-04-21 12:55:00,50.9,29.6,30.58,North,0,0.0,0.0,44,0.00,,,0.00,WUHU216HW,2013-04-21 16:55:00,
2013-04-21 13:00:00,51.4,29.5,30.58,North,0,0.0,0.0,43,0.00,,,0.00,WUHU216HW,2013-04-21 17:00:00,
2013-04-21 13:05:00,51.4,29.5,30.57,NW,315,0.0,2.6,43,0.00,,,0.00,WUHU216HW,2013-04-21 17:05:00,
2013-04-21 13:16:00,52.1,30.2,30.57,ENE,68,0.0,3.3,43,0.00,,,0.00,WUHU216HW,2013-04-21 17:16:00,
2013-04-21 13:21:00,52.8,31.4,30.56,ESE,113,0.0,3.3,44,0.00,,,0.00,WUHU216HW,2013-04-21 17:21:00,
2013-04-21 13:26:00,53.4,31.3,30.57,NNE,23,0.0,0.0,43,0.00,,,0.00,WUHU216HW,2013-04-21 17:26:00,
2013-04-21 13:31:00,53.7,31.1,30.57,ENE,68,0.0,0.0,42,0.00,,,0.00,WUHU216HW,2013-04-21 17:31:00,
2013-04-21 13:36:00,53.9,31.2,30.57,ENE,68,0.0,0.0,42,0.00,,,0.00,WUHU216HW,2013-04-21 17:36:00,
2013-04-21 13:41:00,53.9,30.7,30.56,ENE,68,0.0,0.0,41,0.00,,,0.00,WUHU216HW,2013-04-21 17:41:00,
2013-04-21 13:47:00,53.4,30.2,30.56,ENE,68,0.0,4.9,41,0.00,,,0.00,WUHU216HW,2013-04-21 17:47:00,
2013-04-21 13:52:00,53.6,30.9,30.56,SE,135,0.0,4.9,42,0.00,,,0.00,WUHU216HW,2013-04-21 17:52:00,
2013-04-21 13:57:00,55.2,32.9,30.55,ESE,113,0.0,2.9,43,0.00,,,0.00,WUHU216HW,2013-04-21 17:57:00,
2013-04-21 14:03:00,55.7,32.3,30.55,NE,45,2.9,2.9,41,0.00,,,0.00,WUHU216HW,2013-04-21 18:03:00,
2013-04-21 14:09:00,55.4,31.4,30.55,NE,45,0.0,2.9,40,0.00,,,0.00,WUHU216HW,2013-04-21 18:09:00,
2013-04-21 14:14:00,55.2,30.5,30.55,ENE,68,0.0,4.2,39,0.00,,,0.00,WUHU216HW,2013-04-21 18:14:00,
2013-04-21 14:19:00,55.5,31.6,30.54,NE,45,0.0,4.2,40,0.00,,,0.00,WUHU216HW,2013-04-21 18:19:00,
2013-04-21 14:25:00,56.3,32.2,30.54,ENE,68,0.0,0.0,40,0.00,,,0.00,WUHU216HW,2013-04-21 18:25:00,
2013-04-21 14:31:00,56.8,32.7,30.54,ENE,68,0.0,0.0,40,0.00,,,0.00,WUHU216HW,2013-04-21 18:31:00,
2013-04-21 14:36:00,57.5,32.7,30.54,WNW,293,0.0,0.0,39,0.00,,,0.00,WUHU216HW,2013-04-21 18:36:00,
2013-04-21 14:41:00,57.7,32.8,30.54,ENE,68,0.0,0.0,39,0.00,,,0.00,WUHU216HW,2013-04-21 18:41:00,
2013-04-21 14:46:00,57.5,32.0,30.53,NNW,338,0.0,0.0,38,0.00,,,0.00,WUHU216HW,2013-04-21 18:46:00,
2013-04-21 14:51:00,57.0,30.8,30.54,WSW,248,5.1,5.8,37,0.00,,,0.00,WUHU216HW,2013-04-21 18:51:00,
2013-04-21 14:56:00,56.8,30.6,30.53,WSW,248,0.0,6.2,37,0.00,,,0.00,WUHU216HW,2013-04-21 18:56:00,
2013-04-21 15:02:00,56.4,30.3,30.52,WSW,248,0.0,6.2,37,0.00,,,0.00,WUHU216HW,2013-04-21 19:02:00,
2013-04-21 15:07:00,56.6,30.4,30.52,WSW,248,0.0,0.0,37,0.00,,,0.00,WUHU216HW,2013-04-21 19:07:00,
2013-04-21 15:13:00,57.2,30.9,30.52,ENE,68,0.0,6.7,37,0.00,,,0.00,WUHU216HW,2013-04-21 19:13:00,
2013-04-21 15:18:00,57.9,31.6,30.52,WSW,248,0.0,6.7,37,0.00,,,0.00,WUHU216HW,2013-04-21 19:18:00,
2013-04-21 15:24:00,58.2,31.2,30.52,WSW,248,0.0,0.0,36,0.00,,,0.00,WUHU216HW,2013-04-21 19:24:00,
2013-04-21 15:29:00,58.4,31.4,30.51,WSW,248,0.0,0.0,36,0.00,,,0.00,WUHU216HW,2013-04-21 19:29:00,
2013-04-21 15:34:00,58.8,31.7,30.51,WSW,248,0.0,0.0,36,0.00,,,0.00,WUHU216HW,2013-04-21 19:34:00,
2013-04-21 15:39:00,58.8,31.7,30.50,WSW,248,0.0,7.3,36,0.00,,,0.00,WUHU216HW,2013-04-21 19:39:00,
2013-04-21 15:45:00,59.0,31.8,30.50,WSW,248,0.0,7.3,36,0.00,,,0.00,WUHU216HW,2013-04-21 19:45:00,
2013-04-21 15:50:00,59.1,32.0,30.50,ENE,68,0.0,0.0,36,0.00,,,0.00,WUHU216HW,2013-04-21 19:50:00,
2013-04-21 15:56:00,58.8,31.0,30.50,WSW,248,0.0,0.0,35,0.00,,,0.00,WUHU216HW,2013-04-21 19:56:00,
2013-04-21 16:02:00,58.8,31.7,30.49,WSW,248,0.0,0.0,36,0.00,,,0.00,WUHU216HW,2013-04-21 20:02:00,
2013-04-21 16:08:00,58.8,31.0,30.49,WSW,248,0.0,2.4,35,0.00,,,0.00,WUHU216HW,2013-04-21 20:08:00,
2013-04-21 16:13:00,58.6,30.1,30.49,WSW,248,0.0,6.4,34,0.00,,,0.00,WUHU216HW,2013-04-21 20:13:00,
2013-04-21 16:18:00,58.4,30.5,30.48,WSW,248,0.0,6.4,35,0.00,,,0.00,WUHU216HW,2013-04-21 20:18:00,
2013-04-21 16:24:00,58.8,31.0,30.48,WSW,248,0.0,0.0,35,0.00,,,0.00,WUHU216HW,2013-04-21 20:24:00,
2013-04-21 16:29:00,58.8,30.3,30.48,WSW,248,0.0,0.0,34,0.00,,,0.00,WUHU216HW,2013-04-21 20:29:00,
2013-04-21 16:34:00,58.8,30.3,30.48,WSW,248,0.0,0.0,34,0.00,,,0.00,WUHU216HW,2013-04-21 20:34:00,
2013-04-21 16:40:00,58.8,31.0,30.47,WSW,248,0.0,0.0,35,0.00,,,0.00,WUHU216HW,2013-04-21 20:40:00,
2013-04-21 16:45:00,59.3,31.4,30.47,WSW,248,3.8,3.8,35,0.00,,,0.00,WUHU216HW,2013-04-21 20:45:00,
2013-04-21 16:51:00,59.1,31.3,30.48,WSW,248,0.0,3.8,35,0.00,,,0.00,WUHU216HW,2013-04-21 20:51:00,
2013-04-21 16:56:00,58.8,30.3,30.47,WSW,248,0.0,0.0,34,0.00,,,0.00,WUHU216HW,2013-04-21 20:56:00,
2013-04-21 17:01:00,58.8,30.3,30.47,WSW,248,0.0,0.0,34,0.00,,,0.00,WUHU216HW,2013-04-21 21:01:00,
2013-04-21 17:07:00,59.0,31.4,30.47,WSW,248,0.0,0.0,34,0.00,,,0.00,WUHU216HW,2013-04-21 21:07:00,
2013-04-21 17:12:00,59.7,31.8,30.47,WSW,248,0.0,0.0,35,0.00,,,0.00,WUHU216HW,2013-04-21 21:12:00,
2013-04-21 17:23:00,60.4,31.6,30.47,WSW,248,0.0,0.0,34,0.00,,,0.00,WUHU216HW,2013-04-21 21:23:00,
2013-04-21 17:29:00,60.4,31.6,30.47,WSW,248,0.0,0.0,34,0.00,,,0.00,WUHU216HW,2013-04-21 21:29:00,
2013-04-21 17:34:00,60.0,31.3,30.46,WSW,248,0.0,0.0,34,0.00,,,0.00,WUHU216HW,2013-04-21 21:34:00,
2013-04-21 17:39:00,59.9,31.2,30.46,WSW,248,0.0,4.6,34,0.00,,,0.00,WUHU216HW,2013-04-21 21:39:00,
2013-04-21 17:45:00,59.5,30.9,30.46,WSW,248,0.0,4.6,34,0.00,,,0.00,WUHU216HW,2013-04-21 21:45:00,
2013-04-21 17:50:00,59.1,30.6,30.46,WSW,248,0.0,0.0,34,0.00,,,0.00,WUHU216HW,2013-04-21 21:50:00,
2013-04-21 17:56:00,59.1,30.6,30.46,WSW,248,0.0,0.0,34,0.00,,,0.00,WUHU216HW,2013-04-21 21:56:00,
2013-04-21 18:01:00,59.5,31.6,30.46,North,0,0.0,0.0,35,0.00,,,0.00,WUHU216HW,2013-04-21 22:01:00,
2013-04-21 18:07:00,59.3,30.7,30.46,ENE,68,0.0,1.3,34,0.00,,,0.00,WUHU216HW,2013-04-21 22:07:00,
2013-04-21 18:13:00,59.1,30.6,30.46,NE,45,0.0,1.3,34,0.00,,,0.00,WUHU216HW,2013-04-21 22:13:00,
2013-04-21 18:18:00,58.8,30.3,30.46,North,0,3.8,3.8,34,0.00,,,0.00,WUHU216HW,2013-04-21 22:18:00,
2013-04-21 18:23:00,58.6,30.1,30.46,ENE,68,0.0,3.8,34,0.00,,,0.00,WUHU216HW,2013-04-21 22:23:00,
2013-04-21 18:28:00,58.6,30.8,30.46,NNE,23,4.0,4.0,35,0.00,,,0.00,WUHU216HW,2013-04-21 22:28:00,
2013-04-21 18:33:00,58.4,30.7,30.46,NNE,23,0.0,4.0,35,0.00,,,0.00,WUHU216HW,2013-04-21 22:33:00,
2013-04-21 18:38:00,58.4,30.7,30.46,NNE,23,0.0,4.0,35,0.00,,,0.00,WUHU216HW,2013-04-21 22:38:00,
2013-04-21 18:43:00,58.4,30.7,30.46,NNE,23,3.3,3.3,35,0.00,,,0.00,WUHU216HW,2013-04-21 22:43:00,
2013-04-21 18:49:00,58.1,30.3,30.46,NE,45,0.0,3.3,35,0.00,,,0.00,WUHU216HW,2013-04-21 22:49:00,
2013-04-21 18:54:00,57.9,30.2,30.46,NNE,23,0.0,0.0,35,0.00,,,0.00,WUHU216HW,2013-04-21 22:54:00,
2013-04-21 19:00:00,57.5,29.8,30.46,NNE,23,0.0,0.0,35,0.00,,,0.00,WUHU216HW,2013-04-21 23:00:00,
2013-04-21 19:06:00,57.0,29.4,30.46,NE,45,0.0,3.8,35,0.00,,,0.00,WUHU216HW,2013-04-21 23:06:00,
2013-04-21 19:11:00,56.8,29.2,30.46,NNE,23,0.0,3.8,35,0.00,,,0.00,WUHU216HW,2013-04-21 23:11:00,
2013-04-21 19:16:00,56.4,28.9,30.45,NNE,23,0.0,0.0,35,0.00,,,0.00,WUHU216HW,2013-04-21 23:16:00,
2013-04-21 19:22:00,55.9,28.4,30.45,NE,45,0.0,0.0,35,0.00,,,0.00,WUHU216HW,2013-04-21 23:22:00,
2013-04-21 19:27:00,55.5,28.1,30.45,NNE,23,0.0,0.0,35,0.00,,,0.00,WUHU216HW,2013-04-21 23:27:00,
2013-04-21 19:32:00,55.4,27.9,30.45,NNE,23,0.0,0.0,35,0.00,,,0.00,WUHU216HW,2013-04-21 23:32:00,
2013-04-21 19:38:00,55.2,27.7,30.45,NNE,23,0.0,0.0,35,0.00,,,0.00,WUHU216HW,2013-04-21 23:38:00,
2013-04-21 19:43:00,54.8,28.1,30.45,NNE,23,0.0,0.0,36,0.00,,,0.00,WUHU216HW,2013-04-21 23:43:00,
2013-04-21 19:49:00,54.3,27.7,30.46,NE,45,0.0,0.0,36,0.00,,,0.00,WUHU216HW,2013-04-21 23:49:00,
2013-04-21 19:54:00,54.1,26.8,30.45,NNE,23,0.0,0.0,35,0.00,,,0.00,WUHU216HW,2013-04-21 23:54:00,
2013-04-21 19:59:00,53.7,27.2,30.46,NNE,23,0.0,0.0,36,0.00,,,0.00,WUHU216HW,2013-04-21 23:59:00,
2013-04-21 20:05:00,53.4,26.9,30.46,NNE,23,0.0,0.0,36,0.00,,,0.00,WUHU216HW,2013-04-22 00:05:00,
2013-04-21 20:11:00,53.2,27.4,30.46,NNE,23,0.0,0.0,37,0.00,,,0.00,WUHU216HW,2013-04-22 00:11:00,
2013-04-21 20:16:00,52.8,26.4,30.46,NNE,23,0.0,0.0,36,0.00,,,0.00,WUHU216HW,2013-04-22 00:16:00,
2013-04-21 20:22:00,52.5,26.8,30.46,NNE,23,0.0,0.0,36,0.00,,,0.00,WUHU216HW,2013-04-22 00:22:00,
2013-04-21 20:27:00,52.1,27.1,30.46,NNE,23,0.0,0.0,38,0.00,,,0.00,WUHU216HW,2013-04-22 00:27:00,
2013-04-21 20:33:00,51.6,27.3,30.47,NNE,23,0.0,0.0,39,0.00,,,0.00,WUHU216HW,2013-04-22 00:33:00,
2013-04-21 20:38:00,51.2,27.0,30.47,NNE,23,0.0,0.0,39,0.00,,,0.00,WUHU216HW,2013-04-22 00:38:00,
2013-04-21 20:44:00,50.7,26.5,30.47,NNE,23,0.0,0.0,39,0.00,,,0.00,WUHU216HW,2013-04-22 00:44:00,
2013-04-21 20:50:00,50.1,26.0,30.47,NNE,23,0.0,0.0,39,0.00,,,0.00,WUHU216HW,2013-04-22 00:50:00,
2013-04-21 20:55:00,49.8,26.9,30.47,NNE,23,0.0,0.0,41,0.00,,,0.00,WUHU216HW,2013-04-22 00:55:00,
2013-04-21 21:01:00,49.2,26.4,30.47,NNE,23,0.0,0.0,41,0.00,,,0.00,WUHU216HW,2013-04-22 01:01:00,
2013-04-21 21:07:00,48.7,26.0,30.47,NNE,23,0.0,0.0,41,0.00,,,0.00,WUHU216HW,2013-04-22 01:07:00,
2013-04-21 21:12:00,48.3,25.6,30.47,NNE,23,0.0,0.0,41,0.00,,,0.00,WUHU216HW,2013-04-22 01:12:00,
2013-04-21 21:17:00,48.0,25.8,30.48,NNE,23,0.0,0.0,42,0.00,,,0.00,WUHU216HW,2013-04-22 01:17:00,
2013-04-21 21:22:00,47.4,25.4,30.48,NNE,23,0.0,0.0,42,0.00,,,0.00,WUHU216HW,2013-04-22 01:22:00,
2013-04-21 21:27:00,47.1,25.6,30.48,NNE,23,0.0,0.0,43,0.00,,,0.00,WUHU216HW,2013-04-22 01:27:00,
2013-04-21 21:32:00,46.9,25.4,30.48,NNE,23,0.0,0.0,43,0.00,,,0.00,WUHU216HW,2013-04-22 01:32:00,
2013-04-21 21:37:00,46.4,25.5,30.48,NNE,23,0.0,0.0,44,0.00,,,0.00,WUHU216HW,2013-04-22 01:37:00,
2013-04-21 21:43:00,46.0,25.1,30.48,NNE,23,0.0,0.0,44,0.00,,,0.00,WUHU216HW,2013-04-22 01:43:00,
2013-04-21 21:48:00,45.6,24.8,30.48,NNE,23,0.0,0.0,44,0.00,,,0.00,WUHU216HW,2013-04-22 01:48:00,
2013-04-21 21:53:00,45.3,25.0,30.48,NNE,23,0.0,0.0,45,0.00,,,0.00,WUHU216HW,2013-04-22 01:53:00,
2013-04-21 21:59:00,45.1,24.9,30.48,NNE,23,0.0,0.0,45,0.00,,,0.00,WUHU216HW,2013-04-22 01:59:00,
2013-04-21 22:05:00,44.7,25.1,30.48,NNE,23,0.0,0.0,46,0.00,,,0.00,WUHU216HW,2013-04-22 02:05:00,
2013-04-21 22:11:00,44.4,24.8,30.49,NNE,23,0.0,0.0,46,0.00,,,0.00,WUHU216HW,2013-04-22 02:11:00,
2013-04-21 22:16:00,44.2,25.1,30.49,NNE,23,0.0,0.0,47,0.00,,,0.00,WUHU216HW,2013-04-22 02:16:00,
2013-04-21 22:22:00,43.8,24.8,30.49,NNE,23,0.0,0.0,47,0.00,,,0.00,WUHU216HW,2013-04-22 02:22:00,
2013-04-21 22:28:00,43.5,25.0,30.49,NNE,23,0.0,0.0,48,0.00,,,0.00,WUHU216HW,2013-04-22 02:28:00,
2013-04-21 22:33:00,43.3,24.9,30.49,NNE,23,0.0,0.0,48,0.00,,,0.00,WUHU216HW,2013-04-22 02:33:00,
2013-04-21 22:39:00,42.9,25.1,30.49,NNE,23,0.0,0.0,49,0.00,,,0.00,WUHU216HW,2013-04-22 02:39:00,
2013-04-21 22:44:00,42.9,25.1,30.49,NNE,23,0.0,0.0,49,0.00,,,0.00,WUHU216HW,2013-04-22 02:44:00,
2013-04-21 22:49:00,42.6,24.8,30.49,NNE,23,0.0,0.0,49,0.00,,,0.00,WUHU216HW,2013-04-22 02:49:00,
2013-04-21 22:55:00,42.6,24.8,30.48,NNE,23,0.0,0.0,49,0.00,,,0.00,WUHU216HW,2013-04-22 02:55:00,
2013-04-21 23:01:00,42.6,25.3,30.48,NNE,23,0.0,0.0,50,0.00,,,0.00,WUHU216HW,2013-04-22 03:01:00,
2013-04-21 23:06:00,42.9,25.6,30.48,East,90,0.0,0.0,50,0.00,,,0.00,WUHU216HW,2013-04-22 03:06:00,
2013-04-21 23:12:00,43.1,25.8,30.49,SE,135,0.0,0.0,50,0.00,,,0.00,WUHU216HW,2013-04-22 03:12:00,
2013-04-21 23:18:00,43.3,26.0,30.49,SE,135,0.0,0.0,50,0.00,,,0.00,WUHU216HW,2013-04-22 03:18:00,
2013-04-21 23:24:00,43.3,26.0,30.49,SE,135,0.0,0.0,50,0.00,,,0.00,WUHU216HW,2013-04-22 03:24:00,
2013-04-21 23:29:00,43.3,26.0,30.49,SE,135,0.0,0.0,50,0.00,,,0.00,WUHU216HW,2013-04-22 03:29:00,
2013-04-21 23:35:00,42.9,26.1,30.49,ENE,68,0.0,0.0,51,0.00,,,0.00,WUHU216HW,2013-04-22 03:35:00,
2013-04-21 23:40:00,42.9,26.1,30.49,ESE,113,0.0,0.0,51,0.00,,,0.00,WUHU216HW,2013-04-22 03:40:00,
2013-04-21 23:45:00,43.1,26.2,30.48,ESE,113,0.0,0.0,51,0.00,,,0.00,WUHU216HW,2013-04-22 03:45:00,
2013-04-21 23:51:00,43.1,26.2,30.48,SE,135,0.0,0.0,51,0.00,,,0.00,WUHU216HW,2013-04-22 03:51:00,
2013-04-21 23:56:00,43.3,26.4,30.48,NE,45,0.0,0.0,51,0.00,,,0.00,WUHU216HW,2013-04-22 03:56:00,